HST 1 20580U 90037B 24005.20805017 .00004711 00000-0 23287-3 0 9996 2 20580 28.4707 1.7415 0002512 56.4140 35.5507 15.15424067652376 ISS (ZARYA) 1 25544U 98067A 24005.33738639 .00013910 00000-0 25047-3 0 9998 2 25544 51.6416 47.2005 0003685 356.1740 93.6034 15.50088423433147 CXO 1 25867U 99040B 24003.92176239 .00000525 00000-0 00000-0 0 9990 2 25867 38.1870 171.2207 9011497 283.3394 0.5718 0.37815964 13930